Weather in Selo Berezichskogo Steklozavoda

Russia / Kaluga Oblast     53°57′45″N   35°49′59″E
temp.,
°C
wind,
m/s
gust,
m/s
humid.,
%
clouds,
%
prec.,
mm/h
press.,
hPa
HPBL,
m
20 april, tue
tue2000:00+4ene41097100 0.1 1019630
03:00+4ene51097100 0.5 1018674
06:00+4ene51193100 0.8 1017584
09:00+4ene51191100 2.2 1017591
12:00+7e6988100 0.1 1016929
15:00+5ene61096100 0.1 1015600
18:00+3ene51096100 0.0 1013589
21:00+2ne4997100 0.3 1011486
21 april, wed
wed2100:00+3ne4897100 0.2 1008530
03:00+2nne3798100 0.4 1006330
06:00+2nnw3599100 0.4 1005277
09:00+2wnw3699100 0.6 1006486
12:00+4w4794100 0.1 1007762
15:00+5wsw3794100 0.1 1009663
18:00+6sw3684100 0.1 1010301
21:00+4ssw3792100 0.1 1012202
22 april, thu
thu2200:00+4ssw499599 0.1 1013334
03:00+4ssw3996100 0.3 1014359
06:00+5sw368940 0.1 1015404
09:00+7ssw478159 0.1 1015494
12:00+11s466753 0.1 10151170
15:00+13s686357 0.6 10151241
18:00+12s597136 0.4 1015900
21:00+8sse3109117 0.4 1015235
23 april, fri
fri2300:00+7s399311 0.0 1015177
03:00+7sse41292100 0.0 1015277
06:00+7s4139097 0.3 1015349
09:00+11s61475100 0.4 1015789
12:00+16s7135863 0.4 10141885
15:00+16ssw7115798 2.1 10131917
18:00+11s41187100 3.1 1013729
21:00+9sw3797100 9.9 1012354
24 april, sat
sat2400:00+7ssw1597100 3.3 1011291
03:00+4wnw61097100 7.4 1010500
06:00+3w2798100 2.9 1011540
09:00+4wsw3697100 4.3 1011535
12:00+7wsw4574100 0.6 10101086
15:00+8w6860100 1.6 10101649
18:00+6w696995 0.5 10111261
21:00+2wsw39845 0.5 1012232